Skynet 4F

operational
NORAD ID: 26695 Int'l Des: 2001-005 Owner: MOD Country: UK
HEOCIRCULAR

Über Skynet 4F

Beschreibung wird geladen...

Live-Position

3D-Globus wird geladen...

Nächste Überflüge

Höhenverlauf

Altitude vs Time

uPlot chart will show altitude changes over time

Zweizeiliger Elementsatz

1 26695U 01005B 26070.67522390 -.00000290 00000-0 00000+0 0 9994
2 26695 12.0225 19.0640 0005606 239.2461 308.1565 0.99152323 91648
Epoch: 11. März 2026 • Age: 52 hours

Aktueller Status

Höhe 36115.0 km
Geschwindigkeit 3.06 km/s
Subsatellitenpunkt -0.08°S, 148.11°E
Startdatum 7. Feb. 2001
Alter 25 years
Typ other

Technische Details

Klassifizierung Payload
Masse 1489.00 kg
Trockenmasse 830.00 kg
Gesamtmasse 2119.00 kg
Länge 1.80 m
Durchmesser 1.90 m
Spannweite 16.10 m
Form Box + 2 Pan
Hersteller ASTUK
Bus-Typ ECS
Phasenstatus Renamed
Besitzer/Staat MOD/UK

Große Konstellationen

Loading constellations...